User: anonymous   Login
Location: Unspecified
(0.0000°N, 0.0000°E)
Time: 20:17:09
(UTC+00:00)
Language:

COSMOS 2454 - Orbit

View from above orbital plane
View from above orbital plane
View from above satellite
View from above satellite

Ground track
Ground track

The orbit data is extracted from the following two-line orbital elements,

1 35635U 09039A   19341.45957056  .00000036  00000-0  16361-4 0  9992
2 35635  82.9591  34.0688 0017986 235.9853 123.9598 13.89646255526507
Epoch (UTC): 07 December 2019 11:01:46
Eccentricity: 0.0017986
inclination: 82.9591°
perigee height: 917 km
apogee height: 943 km
right ascension of ascending node: 34.0688°
argument of perigee: 235.9853°
revolutions per day: 13.89646255
mean anomaly at epoch: 123.9598°
orbit number at epoch: 52650

The dashed part of the orbit path shows where the satellite is in the earth's shadow,  

DLR